CCA9691 ZSQD-RKSI

Flight info

Callsign CCA9691
Flight time 0h 55m
Altitude 29100
Route LAT81D LATUX W209 AGAVO/N0477F290 Y644 REBIT REBIT1Y
Aircraft B77W/H-SDE1E2E3FGHIJ2J3J4J5M1RWXY/LB1D1

Departure

Time 2026-05-04 10:56
Airport Qingdao Jiaodong International Airport (ZSQD)

Arrival

Time 2026-05-04 11:52
Airport Incheon International Airport (RKSI)
Time Latitude Longitude Altitude Speed Heading
2026-05-04 10:29 36.37777 120.08999 42 ft 0 kts 252°
2026-05-04 10:45 36.37779 120.09004 42 ft 3 kts 252°
2026-05-04 10:45 36.37787 120.09036 41 ft 3 kts 252°
2026-05-04 10:45 36.37792 120.09065 39 ft 4 kts 272°
2026-05-04 10:45 36.37787 120.09092 39 ft 4 kts 302°
2026-05-04 10:46 36.37771 120.09115 38 ft 4 kts 326°
2026-05-04 10:46 36.37748 120.09131 40 ft 4 kts 338°
2026-05-04 10:46 36.37725 120.09141 41 ft 2 kts 342°
2026-05-04 10:46 36.37703 120.09150 41 ft 4 kts 342°
2026-05-04 10:47 36.37689 120.09155 41 ft 0 kts 342°
2026-05-04 10:52 36.37715 120.09145 40 ft 19 kts 342°
2026-05-04 10:52 36.37971 120.09044 42 ft 38 kts 342°
2026-05-04 10:54 36.38012 120.09369 43 ft 17 kts 163°
2026-05-04 10:54 36.37826 120.09441 43 ft 61 kts 162°
2026-05-04 10:56 36.29454 120.14946 4665 ft 268 kts 149°
2026-05-04 10:56 36.28034 120.16467 5486 ft 279 kts 126°
2026-05-04 10:56 36.27389 120.18746 6401 ft 286 kts 90°
2026-05-04 10:57 36.27733 120.21136 7373 ft 280 kts 67°
2026-05-04 10:57 36.28355 120.23477 8197 ft 293 kts 67°
2026-05-04 10:57 36.28984 120.25922 9204 ft 302 kts 67°
2026-05-04 10:57 36.29627 120.28432 10297 ft 308 kts 66°
2026-05-04 10:58 36.30164 120.31018 11242 ft 317 kts 81°
2026-05-04 10:58 36.29825 120.33781 12250 ft 335 kts 112°
2026-05-04 10:58 36.28482 120.36136 13309 ft 350 kts 140°
2026-05-04 10:58 36.26335 120.37708 13804 ft 371 kts 164°
2026-05-04 10:59 36.23765 120.38660 14044 ft 402 kts 169°
2026-05-04 10:59 36.20986 120.39588 14806 ft 421 kts 169°
2026-05-04 10:59 36.18138 120.40573 15974 ft 429 kts 169°
2026-05-04 10:59 36.15254 120.41622 17263 ft 435 kts 168°
2026-05-04 11:00 36.12340 120.42718 18465 ft 442 kts 168°
2026-05-04 11:01 35.90830 120.51592 25121 ft 490 kts 161°
2026-05-04 11:02 35.87737 120.53392 25992 ft 493 kts 161°
2026-05-04 11:02 35.84636 120.55206 26849 ft 495 kts 162°
2026-05-04 11:05 35.53612 120.94619 29207 ft 567 kts 60°
2026-05-04 11:06 35.57365 121.03154 29192 ft 569 kts 59°
2026-05-04 11:06 35.60887 121.11885 29189 ft 571 kts 63°
2026-05-04 11:10 35.82768 121.72809 29184 ft 569 kts 65°
2026-05-04 11:12 35.95302 122.08707 29182 ft 570 kts 66°
2026-05-04 11:12 35.98404 122.17660 29193 ft 572 kts 66°
2026-05-04 11:13 36.01523 122.26689 29195 ft 572 kts 66°
2026-05-04 11:13 36.04635 122.35726 29205 ft 572 kts 66°
2026-05-04 11:14 36.05162 122.37259 29202 ft 572 kts 66°
2026-05-04 11:16 36.20909 122.83415 29179 ft 624 kts 67°
2026-05-04 11:16 36.24263 122.93338 29183 ft 625 kts 67°
2026-05-04 11:17 36.27612 123.03279 29189 ft 626 kts 67°
2026-05-04 11:19 36.40929 123.43140 29187 ft 624 kts 68°
2026-05-04 11:19 36.44238 123.53128 29185 ft 626 kts 68°
2026-05-04 11:20 36.47540 123.63128 29188 ft 627 kts 68°
2026-05-04 11:20 36.50810 123.73071 28807 ft 591 kts 66°
2026-05-04 11:22 36.60633 124.03145 28846 ft 500 kts 66°
2026-05-04 11:22 36.61938 124.07158 27668 ft 503 kts 66°
2026-05-04 11:23 36.63242 124.11169 27893 ft 499 kts 66°
2026-05-04 11:23 36.64543 124.15177 27975 ft 499 kts 66°
2026-05-04 11:24 36.72297 124.39212 28099 ft 500 kts 66°
2026-05-04 11:25 36.73588 124.43233 28100 ft 500 kts 66°
2026-05-04 11:25 36.76164 124.51278 28104 ft 499 kts 66°
2026-05-04 11:27 36.87680 124.87507 28102 ft 499 kts 66°
2026-05-04 11:28 36.88957 124.91551 27268 ft 503 kts 66°
2026-05-04 11:28 36.90228 124.95585 26500 ft 495 kts 66°
2026-05-04 11:28 36.91477 124.99557 25727 ft 487 kts 66°
2026-05-04 11:28 36.92703 125.03464 24984 ft 479 kts 66°
2026-05-04 11:29 36.93908 125.07306 24254 ft 471 kts 66°
2026-05-04 11:29 36.95092 125.11087 23489 ft 463 kts 66°
2026-05-04 11:29 36.96257 125.14807 22667 ft 456 kts 66°
2026-05-04 11:29 36.97402 125.18465 21948 ft 447 kts 67°
2026-05-04 11:31 37.04865 125.42442 17183 ft 402 kts 68°
2026-05-04 11:33 37.11669 125.64491 12674 ft 377 kts 67°
2026-05-04 11:33 37.12607 125.67545 12040 ft 374 kts 67°
2026-05-04 11:33 37.13536 125.70573 11431 ft 371 kts 67°
2026-05-04 11:34 37.14456 125.73573 10903 ft 366 kts 67°
2026-05-04 11:34 37.15346 125.76484 10760 ft 350 kts 67°
2026-05-04 11:34 37.16198 125.79274 10609 ft 336 kts 67°
2026-05-04 11:34 37.17019 125.81965 10452 ft 324 kts 66°
2026-05-04 11:35 37.17810 125.84555 10334 ft 313 kts 66°
2026-05-04 11:35 37.18574 125.87061 10197 ft 302 kts 66°
2026-05-04 11:35 37.19311 125.89478 10044 ft 293 kts 66°
2026-05-04 11:35 37.20037 125.91859 9713 ft 291 kts 66°
2026-05-04 11:36 37.20757 125.94218 9376 ft 289 kts 66°
2026-05-04 11:36 37.21471 125.96561 9056 ft 287 kts 66°
2026-05-04 11:36 37.22179 125.98890 8734 ft 285 kts 66°
2026-05-04 11:36 37.22882 126.01203 8408 ft 283 kts 66°
2026-05-04 11:37 37.23581 126.03504 8095 ft 281 kts 66°
2026-05-04 11:37 37.24273 126.05789 7772 ft 280 kts 66°
2026-05-04 11:37 37.24963 126.08067 7460 ft 279 kts 66°
2026-05-04 11:37 37.25650 126.10336 7144 ft 278 kts 67°
2026-05-04 11:38 37.26334 126.12598 6818 ft 277 kts 67°
2026-05-04 11:38 37.27007 126.14826 6521 ft 276 kts 67°
2026-05-04 11:38 37.27687 126.17079 6182 ft 276 kts 67°
2026-05-04 11:38 37.28366 126.19332 5833 ft 275 kts 67°
2026-05-04 11:39 37.29042 126.21576 5500 ft 274 kts 67°
2026-05-04 11:39 37.29716 126.23813 5194 ft 273 kts 67°
2026-05-04 11:40 37.33640 126.36898 3778 ft 246 kts 68°
2026-05-04 11:41 37.33845 126.38928 3638 ft 236 kts 99°
2026-05-04 11:41 37.33163 126.40724 3590 ft 228 kts 130°
2026-05-04 11:41 37.31986 126.42109 3541 ft 236 kts 143°
2026-05-04 11:41 37.30648 126.43317 3443 ft 236 kts 146°
2026-05-04 11:42 37.29309 126.44489 3345 ft 234 kts 147°
2026-05-04 11:42 37.27967 126.45650 3263 ft 234 kts 146°
2026-05-04 11:42 37.26635 126.46815 3171 ft 233 kts 146°
2026-05-04 11:42 37.25293 126.47995 3097 ft 237 kts 146°
2026-05-04 11:43 37.23951 126.49178 2990 ft 234 kts 146°
2026-05-04 11:43 37.22625 126.50350 2914 ft 233 kts 146°
2026-05-04 11:43 37.21300 126.51523 2824 ft 233 kts 146°
2026-05-04 11:43 37.20009 126.52740 2733 ft 232 kts 135°
2026-05-04 11:44 37.19264 126.54501 2634 ft 231 kts 96°
2026-05-04 11:44 37.19490 126.56429 2597 ft 223 kts 60°
2026-05-04 11:44 37.20313 126.58074 2566 ft 225 kts 51°
2026-05-04 11:44 37.21215 126.59685 2498 ft 224 kts 51°
2026-05-04 11:45 37.22193 126.61144 2380 ft 215 kts 31°
2026-05-04 11:45 37.23551 126.61711 2412 ft 203 kts 355°
2026-05-04 11:45 37.24838 126.61198 2376 ft 189 kts 329°
2026-05-04 11:45 37.25960 126.60380 2345 ft 185 kts 327°
2026-05-04 11:46 37.27032 126.59518 2306 ft 181 kts 324°
2026-05-04 11:46 37.28062 126.58632 2278 ft 178 kts 323°
2026-05-04 11:46 37.29064 126.57752 2248 ft 174 kts 323°
2026-05-04 11:46 37.30050 126.56879 2222 ft 172 kts 322°
2026-05-04 11:47 37.31024 126.56014 2173 ft 171 kts 322°
2026-05-04 11:47 37.31993 126.55153 2104 ft 171 kts 322°
2026-05-04 11:47 37.32960 126.54294 2040 ft 169 kts 322°
2026-05-04 11:47 37.33878 126.53480 1915 ft 154 kts 322°
2026-05-04 11:48 37.34726 126.52725 1745 ft 146 kts 322°
2026-05-04 11:48 37.35562 126.51982 1710 ft 145 kts 322°
2026-05-04 11:48 37.36358 126.51274 1666 ft 137 kts 322°
2026-05-04 11:48 37.37129 126.50587 1684 ft 135 kts 321°
2026-05-04 11:49 37.37893 126.49909 1628 ft 134 kts 321°
2026-05-04 11:49 37.38649 126.49236 1434 ft 129 kts 321°
2026-05-04 11:49 37.39367 126.48597 1275 ft 125 kts 321°
2026-05-04 11:49 37.40069 126.47972 1092 ft 123 kts 321°
2026-05-04 11:50 37.40765 126.47352 922 ft 123 kts 321°
2026-05-04 11:50 37.41468 126.46726 751 ft 125 kts 320°
2026-05-04 11:50 37.42188 126.46086 594 ft 128 kts 320°
2026-05-04 11:50 37.42912 126.45435 410 ft 128 kts 320°
2026-05-04 11:51 37.43636 126.44792 297 ft 128 kts 322°
2026-05-04 11:51 37.44369 126.44144 96 ft 129 kts 320°
2026-05-04 11:51 37.45065 126.43524 37 ft 116 kts 323°
2026-05-04 11:51 37.45622 126.43032 37 ft 74 kts 324°
2026-05-04 11:52 37.45977 126.42741 37 ft 36 kts 349°
2026-05-04 11:52 37.46126 126.42715 37 ft 1 kts 355°
2026-05-04 11:52 37.46140 126.42714 37 ft 3 kts 355°
2026-05-04 11:52 37.46166 126.42711 37 ft 4 kts 355°
2026-05-04 11:53 37.46197 126.42708 37 ft 5 kts 355°
2026-05-04 11:53 37.46216 126.42706 37 ft 0 kts 355°
2026-05-04 11:55 37.46406 126.42880 37 ft 0 kts 54°
2026-05-04 11:55 37.46439 126.42939 37 ft 5 kts 51°
2026-05-04 11:56 37.46441 126.42942 37 ft 0 kts 51°